QPF
0.00 0.00 0.00 0.00 0.00 0.00 0.00 0.00 0.00 0.00 0.00 0.00 0.00 0.00 0.00 0.00 0.00 0.00 0.00 0.01 0.01 0.01 0.00 0.00 0.00 0.00 0.00 0.00 0.00 0.00 0.00 0.00 0.01 0.02 0.02 0.01 0.01 0.01 0.01 0.00 0.00 0.00 0.00
0.00 0.00 0.00 0.00 0.00 0.00 0.00 0.00 0.00 0.00 0.00 0.00 0.00 0.00 0.00 0.00 0.01 0.00 0.00 0.01 0.01 0.01 0.00 0.00 0.00 0.00 0.00 0.00 0.00 0.00 0.00 0.02 0.04 0.05 0.04 0.02 0.02 0.02 0.01 0.01 0.00 0.00 0.00
0.00 0.00 0.00 0.00 0.00 0.00 0.00 0.00 0.00 0.01 0.00 0.00 0.00 0.00 0.00 0.00 0.01 0.00 0.00 0.00 0.00 0.00 0.00 0.00 0.00 0.00 0.00 0.00 0.00 0.00 0.01 0.02 0.04 0.07 0.06 0.03 0.03 0.03 0.02 0.01 0.00 0.00 0.00
0.00 0.00 0.00 0.00 0.00 0.00 0.00 0.00 0.00 0.00 0.00 0.00 0.00 0.00 0.00 0.00 0.00 0.00 0.01 0.00 0.00 0.00 0.00 0.00 0.00 0.00 0.00 0.00 0.00 0.00 0.01 0.02 0.04 0.08 0.10 0.10 0.07 0.05 0.03 0.02 0.00 0.00 0.00
0.00 0.00 0.00 0.00 0.00 0.00 0.00 0.00 0.00 0.00 0.00 0.00 0.00 0.00 0.00 0.00 0.00 0.01 0.01 0.01 0.00 0.00 0.00 0.00 0.00 0.00 0.00 0.00 0.00 0.00 0.00 0.02 0.04 0.10 0.18 0.24 0.15 0.07 0.03 0.01 0.00 0.00 0.00
0.00 0.00 0.00 0.00 0.00 0.00 0.00 0.00 0.00 0.00 0.00 0.00 0.00 0.00 0.00 0.00 0.00 0.00 0.00 0.00 0.00 0.00 0.00 0.00 0.00 0.00 0.00 0.00 0.00 0.00 0.00 0.02 0.04 0.11 0.21 0.32 0.20 0.09 0.04 0.01 0.00 0.00 0.00
0.00 0.00 0.00 0.00 0.00 0.00 0.00 0.00 0.00 0.00 0.00 0.00 0.00 0.00 0.00 0.00 0.00 0.00 0.00 0.00 0.00 0.00 0.00 0.00 0.00 0.00 0.00 0.00 0.00 0.00 0.00 0.01 0.03 0.08 0.16 0.43 0.29 0.11 0.05 0.02 0.01 0.00 0.00
0.00 0.00 0.00 0.00 0.00 0.00 0.00 0.00 0.00 0.00 0.00 0.00 0.00 0.00 0.00 0.00 0.00 0.00 0.00 0.00 0.00 0.00 0.00 0.00 0.00 0.00 0.00 0.00 0.00 0.00 0.00 0.01 0.02 0.06 0.11 0.19 0.14 0.09 0.03 0.02 0.01 0.00 0.00
0.00 0.00 0.00 0.00 0.00 0.00 0.00 0.00 0.00 0.00 0.00 0.00 0.00 0.00 0.00 0.00 0.00 0.00 0.00 0.00 0.00 0.00 0.00 0.00 0.00 0.00 0.00 0.00 0.00 0.00 0.00 0.00 0.01 0.04 0.13 0.14 0.08 0.06 0.03 0.02 0.01 0.00 0.00
0.00 0.00 0.00 0.00 0.00 0.00 0.00 0.00 0.00 0.00 0.00 0.00 0.00 0.00 0.00 0.00 0.00 0.00 0.00 0.00 0.00 0.00 0.00 0.00 0.00 0.00 0.00 0.00 0.00 0.00 0.00 0.00 0.01 0.03 0.05 0.07 0.07 0.04 0.02 0.01 0.01 0.00 0.00
0.00 0.00 0.00 0.00 0.00 0.00 0.00 0.00 0.00 0.00 0.00 0.00 0.00 0.00 0.00 0.00 0.00 0.00 0.00 0.00 0.00 0.00 0.00 0.00 0.00 0.00 0.00 0.00 0.00 0.00 0.00 0.00 0.01 0.02 0.04 0.05 0.07 0.04 0.02 0.01 0.01 0.00 0.00
0.00 0.00 0.00 0.00 0.00 0.00 0.00 0.00 0.00 0.00 0.00 0.00 0.00 0.00 0.00 0.00 0.00 0.00 0.00 0.00 0.00 0.00 0.00 0.00 0.00 0.00 0.00 0.00 0.00 0.00 0.00 0.00 0.01 0.03 0.05 0.07 0.07 0.05 0.03 0.02 0.01 0.01 0.00
0.00 0.00 0.00 0.00 0.00 0.00 0.00 0.00 0.00 0.00 0.00 0.00 0.00 0.00 0.00 0.00 0.00 0.00 0.00 0.00 0.00 0.00 0.00 0.00 0.00 0.00 0.00 0.00 0.00 0.00 0.00 0.00 0.01 0.02 0.05 0.07 0.06 0.05 0.04 0.02 0.01 0.00 0.00
0.01 0.00 0.00 0.00 0.00 0.00 0.00 0.00 0.00 0.00 0.00 0.00 0.00 0.00 0.00 0.00 0.00 0.00 0.00 0.00 0.00 0.00 0.00 0.00 0.00 0.01 0.01 0.01 0.01 0.01 0.00 0.01 0.01 0.02 0.03 0.05 0.05 0.05 0.03 0.02 0.01 0.01 0.01
0.03 0.01 0.00 0.00 0.00 0.00 0.00 0.00 0.00 0.00 0.00 0.00 0.00 0.00 0.00 0.00 0.00 0.00 0.00 0.00 0.00 0.01 0.01 0.01 0.01 0.02 0.02 0.02 0.01 0.01 0.01 0.01 0.01 0.02 0.03 0.05 0.05 0.04 0.03 0.02 0.01 0.01 0.01
0.03 0.02 0.01 0.00 0.00 0.00 0.00 0.00 0.00 0.00 0.00 0.00 0.00 0.00 0.00 0.00 0.00 0.01 0.01 0.01 0.01 0.01 0.01 0.01 0.03 0.03 0.03 0.02 0.02 0.02 0.02 0.02 0.02 0.02 0.02 0.02 0.03 0.02 0.02 0.01 0.01 0.01 0.01
0.03 0.02 0.01 0.00 0.00 0.00 0.00 0.00 0.00 0.00 0.00 0.00 0.00 0.00 0.00 0.00 0.00 0.00 0.01 0.01 0.00 0.01 0.02 0.03 0.03 0.03 0.03 0.02 0.02 0.02 0.03 0.03 0.03 0.04 0.03 0.02 0.01 0.01 0.01 0.01 0.01 0.01 0.01
0.03 0.02 0.02 0.01 0.00 0.00 0.00 0.00 0.00 0.00 0.00 0.00 0.00 0.00 0.00 0.00 0.00 0.00 0.01 0.01 0.01 0.01 0.01 0.02 0.02 0.02 0.03 0.03 0.03 0.03 0.03 0.03 0.03 0.03 0.02 0.02 0.01 0.01 0.01 0.01 0.00 0.00 0.01
0.04 0.03 0.03 0.03 0.02 0.01 0.00 0.00 0.00 0.00 0.01 0.01 0.01 0.02 0.01 0.01 0.01 0.01 0.02 0.01 0.01 0.01 0.01 0.01 0.01 0.01 0.02 0.02 0.03 0.04 0.03 0.02 0.02 0.03 0.02 0.02 0.01 0.00 0.00 0.00 0.00 0.00 0.00
0.05 0.04 0.04 0.03 0.04 0.02 0.02 0.02 0.02 0.02 0.03 0.04 0.04 0.04 0.05 0.06 0.05 0.04 0.04 0.03 0.02 0.02 0.02 0.01 0.01 0.01 0.01 0.01 0.03 0.03 0.02 0.01 0.01 0.02 0.01 0.01 0.01 0.00 0.00 0.00 0.00 0.00 0.01
0.12 0.08 0.07 0.05 0.04 0.04 0.04 0.04 0.04 0.04 0.05 0.07 0.08 0.10 0.12 0.12 0.10 0.08 0.06 0.04 0.03 0.02 0.01 0.01 0.01 0.01 0.00 0.01 0.01 0.02 0.01 0.01 0.01 0.01 0.01 0.00 0.00 0.00 0.00 0.00 0.00 0.00 0.00
0.13 0.16 0.16 0.13 0.08 0.08 0.08 0.08 0.09 0.10 0.12 0.12 0.15 0.20 0.20 0.17 0.14 0.10 0.07 0.06 0.04 0.03 0.02 0.01 0.01 0.01 0.01 0.00 0.00 0.01 0.01 0.01 0.00 0.00 0.00 0.00 0.00 0.00 0.00 0.00 0.00 0.00 0.00
0.12 0.16 0.15 0.14 0.15 0.14 0.15 0.17 0.19 0.20 0.19 0.20 0.20 0.20 0.18 0.16 0.15 0.12 0.10 0.08 0.05 0.03 0.02 0.01 0.01 0.01 0.00 0.00 0.00 0.01 0.01 0.01 0.01 0.00 0.00 0.00 0.00 0.00 0.00 0.00 0.00 0.00 0.00
0.09 0.10 0.12 0.14 0.17 0.18 0.23 0.28 0.30 0.29 0.28 0.29 0.27 0.24 0.23 0.21 0.20 0.17 0.13 0.08 0.05 0.03 0.02 0.01 0.01 0.00 0.00 0.00 0.00 0.00 0.00 0.00 0.01 0.01 0.00 0.00 0.00 0.00 0.00 0.00 0.00 0.00 0.00
0.08 0.11 0.14 0.18 0.22 0.24 0.28 0.32 0.33 0.33 0.34 0.35 0.35 0.31 0.27 0.23 0.20 0.16 0.10 0.07 0.05 0.03 0.02 0.01 0.00 0.00 0.00 0.00 0.00 0.01 0.01 0.01 0.01 0.01 0.00 0.00 0.00 0.00 0.00 0.00 0.00 0.00 0.00
0.08 0.10 0.14 0.18 0.20 0.23 0.28 0.34 0.36 0.38 0.39 0.38 0.34 0.31 0.27 0.23 0.18 0.12 0.08 0.06 0.04 0.02 0.01 0.01 0.00 0.00 0.00 0.00 0.00 0.00 0.00 0.01 0.01 0.01 0.00 0.00 0.00 0.00 0.00 0.00 0.00 0.00 0.00
MSLP
1013.06 1012.78 1012.59 1012.58 1012.75 1013.07 1013.48 1013.91 1014.27 1014.52 1014.66 1014.72 1014.77 1014.87 1015.04 1015.31 1015.65 1016.00 1016.33 1016.59 1016.76 1016.87 1016.93 1017.01 1017.12 1017.27 1017.47 1017.69 1017.88 1018.03 1018.12 1018.16 1018.18 1018.21 1018.28 1018.39 1018.53 1018.70 1018.85 1018.96 1019.02 1019.03 1019.01
1012.63 1012.47 1012.40 1012.48 1012.73 1013.10 1013.55 1013.98 1014.34 1014.60 1014.77 1014.88 1014.99 1015.15 1015.38 1015.69 1016.04 1016.38 1016.68 1016.90 1017.03 1017.10 1017.14 1017.21 1017.31 1017.47 1017.68 1017.89 1018.07 1018.21 1018.28 1018.30 1018.31 1018.34 1018.41 1018.53 1018.68 1018.86 1019.02 1019.14 1019.21 1019.22 1019.21
1012.16 1012.09 1012.11 1012.30 1012.63 1013.07 1013.56 1014.02 1014.41 1014.71 1014.91 1015.06 1015.22 1015.41 1015.68 1015.99 1016.33 1016.65 1016.90 1017.08 1017.17 1017.22 1017.25 1017.31 1017.42 1017.59 1017.80 1018.00 1018.17 1018.29 1018.35 1018.36 1018.37 1018.39 1018.47 1018.60 1018.77 1018.96 1019.13 1019.27 1019.34 1019.37 1019.37
1011.74 1011.74 1011.85 1012.12 1012.52 1013.02 1013.57 1014.07 1014.50 1014.83 1015.07 1015.25 1015.43 1015.65 1015.91 1016.20 1016.51 1016.78 1016.99 1017.12 1017.19 1017.22 1017.26 1017.33 1017.46 1017.65 1017.86 1018.06 1018.23 1018.34 1018.39 1018.40 1018.40 1018.43 1018.52 1018.65 1018.84 1019.03 1019.22 1019.36 1019.46 1019.51 1019.54
1011.50 1011.55 1011.71 1012.03 1012.48 1013.03 1013.61 1014.15 1014.60 1014.96 1015.22 1015.42 1015.62 1015.82 1016.06 1016.33 1016.58 1016.80 1016.97 1017.07 1017.12 1017.16 1017.22 1017.32 1017.47 1017.68 1017.90 1018.11 1018.28 1018.38 1018.43 1018.45 1018.46 1018.50 1018.59 1018.74 1018.92 1019.12 1019.31 1019.46 1019.57 1019.65 1019.71
1011.48 1011.56 1011.75 1012.09 1012.56 1013.12 1013.70 1014.24 1014.70 1015.07 1015.33 1015.55 1015.74 1015.93 1016.15 1016.37 1016.58 1016.77 1016.89 1016.98 1017.03 1017.09 1017.17 1017.30 1017.49 1017.71 1017.95 1018.17 1018.34 1018.44 1018.50 1018.52 1018.55 1018.60 1018.71 1018.86 1019.04 1019.24 1019.42 1019.57 1019.69 1019.79 1019.88
1011.69 1011.78 1011.97 1012.30 1012.75 1013.28 1013.82 1014.33 1014.77 1015.12 1015.38 1015.59 1015.78 1015.97 1016.17 1016.37 1016.56 1016.72 1016.83 1016.91 1016.97 1017.04 1017.16 1017.32 1017.53 1017.77 1018.01 1018.23 1018.40 1018.51 1018.58 1018.62 1018.66 1018.73 1018.84 1018.99 1019.17 1019.35 1019.52 1019.67 1019.79 1019.90 1020.02
1012.04 1012.14 1012.32 1012.61 1013.01 1013.47 1013.94 1014.39 1014.78 1015.09 1015.34 1015.56 1015.76 1015.96 1016.17 1016.37 1016.56 1016.71 1016.82 1016.91 1016.98 1017.07 1017.20 1017.37 1017.59 1017.83 1018.07 1018.28 1018.44 1018.55 1018.63 1018.68 1018.74 1018.83 1018.95 1019.10 1019.27 1019.44 1019.60 1019.73 1019.85 1019.97 1020.09
1012.42 1012.53 1012.70 1012.95 1013.28 1013.65 1014.03 1014.39 1014.70 1014.98 1015.22 1015.45 1015.67 1015.91 1016.16 1016.39 1016.60 1016.77 1016.89 1016.99 1017.08 1017.17 1017.30 1017.46 1017.66 1017.88 1018.10 1018.28 1018.43 1018.54 1018.61 1018.68 1018.76 1018.86 1018.99 1019.15 1019.31 1019.46 1019.61 1019.73 1019.85 1019.97 1020.10
1012.71 1012.85 1013.02 1013.24 1013.50 1013.77 1014.05 1014.32 1014.57 1014.80 1015.03 1015.28 1015.56 1015.85 1016.15 1016.44 1016.68 1016.89 1017.03 1017.14 1017.23 1017.32 1017.42 1017.56 1017.73 1017.91 1018.08 1018.23 1018.36 1018.45 1018.53 1018.61 1018.70 1018.81 1018.95 1019.11 1019.27 1019.42 1019.55 1019.67 1019.79 1019.91 1020.05
1012.83 1013.03 1013.22 1013.42 1013.62 1013.82 1014.02 1014.20 1014.38 1014.59 1014.82 1015.10 1015.43 1015.79 1016.15 1016.50 1016.80 1017.03 1017.20 1017.32 1017.40 1017.47 1017.55 1017.65 1017.77 1017.91 1018.03 1018.15 1018.25 1018.33 1018.40 1018.48 1018.59 1018.72 1018.86 1019.02 1019.18 1019.33 1019.47 1019.59 1019.71 1019.84 1019.98
1012.75 1013.03 1013.27 1013.47 1013.65 1013.80 1013.92 1014.05 1014.19 1014.37 1014.62 1014.93 1015.31 1015.72 1016.15 1016.54 1016.89 1017.15 1017.34 1017.47 1017.54 1017.60 1017.65 1017.72 1017.80 1017.90 1017.99 1018.07 1018.15 1018.22 1018.29 1018.38 1018.49 1018.62 1018.78 1018.94 1019.10 1019.26 1019.40 1019.53 1019.66 1019.80 1019.95
1012.51 1012.86 1013.17 1013.40 1013.58 1013.71 1013.80 1013.89 1014.01 1014.19 1014.44 1014.78 1015.20 1015.65 1016.11 1016.55 1016.92 1017.21 1017.41 1017.54 1017.63 1017.68 1017.73 1017.78 1017.84 1017.92 1017.99 1018.06 1018.13 1018.20 1018.27 1018.36 1018.47 1018.61 1018.76 1018.92 1019.09 1019.24 1019.39 1019.53 1019.68 1019.83 1019.99
1012.17 1012.60 1012.96 1013.24 1013.44 1013.57 1013.66 1013.74 1013.86 1014.04 1014.30 1014.66 1015.09 1015.56 1016.03 1016.48 1016.86 1017.16 1017.38 1017.53 1017.63 1017.71 1017.77 1017.84 1017.92 1018.00 1018.09 1018.16 1018.24 1018.31 1018.39 1018.48 1018.60 1018.72 1018.87 1019.03 1019.18 1019.34 1019.49 1019.64 1019.79 1019.95 1020.11
1011.80 1012.27 1012.68 1013.00 1013.22 1013.38 1013.49 1013.60 1013.73 1013.92 1014.20 1014.56 1014.98 1015.44 1015.90 1016.33 1016.70 1017.01 1017.25 1017.43 1017.57 1017.69 1017.81 1017.93 1018.05 1018.17 1018.29 1018.40 1018.50 1018.59 1018.68 1018.77 1018.88 1019.00 1019.12 1019.25 1019.39 1019.53 1019.67 1019.82 1019.97 1020.13 1020.29
1011.45 1011.94 1012.36 1012.70 1012.95 1013.14 1013.29 1013.43 1013.60 1013.83 1014.11 1014.46 1014.86 1015.28 1015.71 1016.11 1016.46 1016.77 1017.04 1017.26 1017.47 1017.67 1017.86 1018.05 1018.25 1018.43 1018.60 1018.76 1018.89 1019.00 1019.11 1019.20 1019.29 1019.39 1019.49 1019.58 1019.69 1019.79 1019.91 1020.03 1020.17 1020.32 1020.47
1011.16 1011.61 1012.01 1012.34 1012.61 1012.84 1013.04 1013.24 1013.46 1013.72 1014.03 1014.37 1014.75 1015.13 1015.50 1015.86 1016.20 1016.51 1016.81 1017.09 1017.37 1017.65 1017.93 1018.22 1018.49 1018.74 1018.97 1019.17 1019.34 1019.48 1019.59 1019.69 1019.77 1019.83 1019.89 1019.94 1020.00 1020.05 1020.12 1020.21 1020.31 1020.43 1020.56
1010.94 1011.31 1011.64 1011.93 1012.20 1012.46 1012.72 1013.00 1013.29 1013.61 1013.95 1014.30 1014.66 1015.00 1015.33 1015.66 1015.98 1016.30 1016.62 1016.96 1017.32 1017.68 1018.05 1018.41 1018.75 1019.06 1019.33 1019.57 1019.77 1019.93 1020.05 1020.15 1020.21 1020.25 1020.27 1020.27 1020.26 1020.25 1020.26 1020.29 1020.34 1020.42 1020.51
1010.77 1011.02 1011.25 1011.49 1011.75 1012.04 1012.36 1012.72 1013.11 1013.51 1013.91 1014.28 1014.63 1014.96 1015.26 1015.56 1015.86 1016.19 1016.55 1016.94 1017.35 1017.78 1018.21 1018.62 1019.00 1019.34 1019.64 1019.90 1020.11 1020.29 1020.42 1020.52 1020.57 1020.59 1020.56 1020.51 1020.44 1020.36 1020.29 1020.25 1020.24 1020.27 1020.32
1010.68 1010.78 1010.89 1011.06 1011.30 1011.62 1012.01 1012.47 1012.97 1013.46 1013.93 1014.35 1014.72 1015.04 1015.33 1015.61 1015.91 1016.25 1016.63 1017.05 1017.50 1017.96 1018.42 1018.84 1019.23 1019.58 1019.88 1020.13 1020.35 1020.53 1020.67 1020.77 1020.82 1020.82 1020.77 1020.66 1020.53 1020.38 1020.23 1020.11 1020.03 1020.00 1020.00
1010.66 1010.62 1010.61 1010.71 1010.92 1011.28 1011.75 1012.31 1012.91 1013.51 1014.07 1014.55 1014.95 1015.28 1015.57 1015.85 1016.15 1016.49 1016.88 1017.31 1017.77 1018.23 1018.68 1019.09 1019.45 1019.77 1020.04 1020.28 1020.49 1020.68 1020.83 1020.94 1021.00 1020.99 1020.92 1020.78 1020.59 1020.36 1020.14 1019.94 1019.79 1019.68 1019.64
1010.78 1010.59 1010.48 1010.51 1010.72 1011.10 1011.65 1012.31 1013.02 1013.72 1014.36 1014.90 1015.34 1015.70 1016.00 1016.28 1016.58 1016.91 1017.30 1017.72 1018.16 1018.59 1018.99 1019.36 1019.67 1019.94 1020.17 1020.39 1020.59 1020.79 1020.96 1021.09 1021.17 1021.17 1021.08 1020.91 1020.68 1020.40 1020.10 1019.83 1019.59 1019.43 1019.33
1011.06 1010.77 1010.57 1010.56 1010.76 1011.18 1011.79 1012.53 1013.33 1014.11 1014.82 1015.42 1015.90 1016.27 1016.58 1016.86 1017.16 1017.48 1017.84 1018.24 1018.64 1019.03 1019.37 1019.68 1019.92 1020.14 1020.34 1020.53 1020.73 1020.93 1021.13 1021.29 1021.39 1021.41 1021.33 1021.15 1020.88 1020.55 1020.19 1019.84 1019.54 1019.31 1019.16
1011.54 1011.17 1010.94 1010.90 1011.11 1011.57 1012.22 1013.02 1013.88 1014.71 1015.46 1016.08 1016.57 1016.96 1017.27 1017.55 1017.83 1018.14 1018.48 1018.84 1019.20 1019.53 1019.82 1020.06 1020.25 1020.42 1020.58 1020.76 1020.96 1021.18 1021.40 1021.60 1021.73 1021.77 1021.70 1021.51 1021.22 1020.85 1020.45 1020.05 1019.69 1019.39 1019.18
1012.21 1011.83 1011.58 1011.56 1011.78 1012.26 1012.94 1013.76 1014.63 1015.47 1016.22 1016.84 1017.33 1017.70 1018.00 1018.27 1018.54 1018.83 1019.15 1019.47 1019.79 1020.08 1020.32 1020.51 1020.66 1020.79 1020.93 1021.10 1021.30 1021.54 1021.79 1022.01 1022.17 1022.24 1022.18 1022.00 1021.69 1021.31 1020.87 1020.42 1020.01 1019.66 1019.39
1013.05 1012.68 1012.47 1012.48 1012.73 1013.22 1013.90 1014.70 1015.55 1016.35 1017.06 1017.64 1018.10 1018.45 1018.72 1018.98 1019.24 1019.51 1019.81 1020.12 1020.41 1020.66 1020.87 1021.02 1021.15 1021.26 1021.38 1021.54 1021.75 1022.00 1022.26 1022.50 1022.68 1022.75 1022.71 1022.53 1022.23 1021.84 1021.38 1020.91 1020.46 1020.06 1019.73
Thickness
5796 5797 5796 5795 5794 5793 5791 5789 5788 5786 5784 5782 5780 5778 5777 5775 5773 5770 5768 5766 5764 5762 5759 5757 5755 5753 5752 5751 5749 5748 5747 5746 5746 5745 5743 5742 5741 5741 5740 5738 5737 5736 5735
5801 5797 5794 5793 5792 5791 5789 5787 5785 5783 5781 5779 5777 5776 5774 5772 5770 5767 5765 5763 5761 5759 5756 5754 5753 5751 5749 5748 5747 5745 5744 5743 5742 5741 5740 5739 5738 5737 5737 5735 5733 5732 5731
5800 5796 5793 5792 5790 5789 5787 5784 5782 5780 5778 5776 5775 5773 5771 5769 5767 5765 5763 5760 5758 5756 5754 5752 5750 5749 5747 5746 5745 5743 5741 5740 5739 5737 5736 5735 5734 5733 5732 5730 5729 5728 5727
5799 5794 5792 5790 5788 5787 5785 5782 5780 5778 5775 5773 5772 5770 5768 5766 5764 5762 5761 5758 5756 5754 5753 5751 5749 5747 5746 5744 5743 5741 5739 5738 5737 5735 5734 5732 5730 5729 5728 5726 5725 5724 5723
5796 5792 5790 5788 5787 5785 5783 5781 5778 5776 5774 5771 5769 5768 5766 5765 5763 5761 5759 5757 5755 5753 5751 5749 5747 5746 5744 5743 5741 5739 5737 5736 5735 5734 5732 5730 5728 5726 5725 5724 5722 5721 5719
5793 5790 5788 5787 5785 5784 5781 5779 5777 5775 5773 5770 5768 5767 5765 5763 5761 5760 5758 5756 5754 5752 5750 5748 5746 5744 5743 5741 5739 5737 5735 5734 5734 5732 5731 5729 5727 5724 5723 5721 5720 5718 5716
5790 5789 5787 5786 5784 5782 5780 5778 5776 5774 5772 5770 5768 5766 5764 5762 5760 5758 5756 5754 5753 5751 5749 5747 5745 5743 5741 5739 5737 5734 5733 5733 5732 5730 5729 5727 5726 5724 5721 5719 5717 5715 5714
5790 5787 5785 5784 5783 5781 5780 5778 5776 5774 5771 5769 5767 5765 5763 5761 5759 5757 5755 5753 5751 5749 5748 5746 5744 5741 5739 5737 5734 5731 5730 5730 5730 5728 5726 5724 5723 5721 5719 5717 5715 5713 5711
5788 5785 5784 5783 5782 5781 5779 5777 5775 5773 5771 5769 5767 5765 5762 5760 5758 5756 5754 5752 5750 5748 5746 5744 5742 5740 5737 5735 5732 5729 5727 5728 5727 5725 5723 5721 5720 5718 5716 5714 5712 5710 5708
5786 5785 5784 5783 5782 5780 5778 5776 5774 5772 5770 5769 5766 5764 5762 5759 5757 5755 5753 5751 5749 5746 5744 5742 5740 5738 5735 5732 5730 5727 5725 5725 5724 5723 5720 5718 5716 5714 5712 5710 5709 5707 5706
5783 5783 5783 5782 5781 5779 5777 5775 5773 5771 5769 5767 5765 5763 5761 5758 5756 5754 5752 5750 5747 5744 5742 5739 5737 5735 5732 5730 5727 5725 5724 5723 5722 5721 5718 5715 5712 5710 5708 5706 5705 5704 5703
5782 5782 5783 5782 5781 5779 5778 5775 5773 5771 5769 5767 5765 5763 5760 5758 5755 5753 5751 5748 5745 5742 5739 5736 5734 5731 5729 5726 5724 5723 5722 5721 5719 5717 5715 5712 5709 5706 5704 5703 5702 5700 5699
5787 5785 5784 5783 5782 5780 5779 5775 5773 5771 5768 5766 5764 5762 5759 5756 5754 5752 5749 5746 5743 5740 5736 5733 5730 5728 5725 5722 5721 5720 5718 5717 5715 5713 5710 5707 5704 5702 5700 5699 5697 5696 5695
5787 5787 5786 5785 5783 5781 5779 5776 5773 5771 5768 5766 5764 5762 5758 5755 5752 5750 5747 5744 5741 5737 5734 5730 5726 5724 5721 5718 5717 5716 5714 5712 5709 5707 5704 5701 5699 5696 5695 5693 5692 5690 5689
5788 5788 5787 5787 5785 5782 5779 5776 5774 5771 5769 5767 5764 5761 5758 5755 5752 5749 5746 5742 5738 5734 5730 5726 5722 5719 5717 5714 5712 5710 5708 5705 5703 5700 5698 5695 5693 5691 5689 5687 5686 5684 5683
5790 5790 5790 5788 5787 5784 5781 5777 5775 5772 5769 5766 5763 5761 5758 5754 5751 5748 5744 5740 5736 5732 5728 5723 5719 5716 5712 5709 5706 5704 5701 5699 5696 5693 5690 5688 5686 5684 5683 5681 5680 5678 5676
5793 5792 5791 5790 5787 5785 5782 5778 5775 5771 5768 5764 5762 5759 5756 5753 5750 5746 5741 5737 5733 5729 5725 5720 5716 5712 5707 5703 5699 5697 5694 5691 5688 5684 5682 5680 5678 5677 5675 5674 5672 5670 5669
5796 5793 5792 5792 5788 5785 5782 5778 5775 5771 5766 5763 5760 5756 5753 5750 5746 5742 5737 5733 5729 5725 5721 5716 5711 5706 5701 5697 5692 5689 5686 5684 5681 5678 5675 5673 5672 5670 5668 5666 5664 5663 5661
5799 5796 5793 5792 5787 5784 5781 5777 5773 5768 5764 5760 5757 5753 5750 5746 5742 5737 5732 5727 5723 5719 5715 5711 5705 5701 5695 5691 5687 5683 5680 5677 5675 5672 5670 5668 5666 5665 5663 5660 5657 5655 5654
5798 5795 5792 5790 5785 5781 5776 5771 5766 5761 5758 5755 5751 5747 5744 5739 5735 5731 5725 5721 5717 5712 5707 5703 5698 5694 5689 5686 5684 5679 5676 5673 5669 5666 5664 5662 5660 5658 5656 5653 5650 5648 5646
5790 5787 5786 5785 5782 5777 5771 5765 5758 5751 5748 5745 5742 5738 5734 5730 5727 5723 5718 5714 5710 5705 5699 5695 5691 5686 5681 5679 5676 5672 5670 5668 5665 5662 5659 5656 5654 5652 5649 5646 5643 5641 5639
5784 5783 5784 5782 5780 5775 5770 5763 5756 5747 5740 5736 5732 5728 5724 5721 5717 5713 5709 5705 5700 5696 5691 5687 5684 5678 5673 5670 5668 5663 5659 5658 5656 5655 5652 5649 5646 5643 5640 5638 5636 5633 5631
5777 5779 5779 5777 5772 5769 5765 5756 5747 5739 5731 5724 5719 5715 5712 5710 5707 5703 5698 5695 5691 5687 5682 5678 5675 5671 5665 5660 5659 5656 5650 5647 5643 5644 5642 5639 5637 5634 5631 5629 5627 5624 5622
5768 5771 5772 5769 5765 5761 5756 5749 5741 5732 5722 5715 5709 5704 5700 5697 5694 5690 5686 5683 5679 5676 5672 5669 5665 5662 5657 5651 5647 5644 5641 5638 5634 5631 5630 5628 5626 5623 5620 5618 5615 5613 5610
5755 5757 5758 5757 5752 5749 5745 5739 5731 5722 5714 5705 5698 5692 5687 5683 5679 5677 5674 5670 5667 5663 5659 5656 5654 5650 5646 5641 5636 5632 5629 5625 5622 5618 5614 5612 5611 5609 5606 5604 5602 5600 5597
5739 5741 5741 5740 5735 5733 5729 5723 5717 5709 5701 5693 5685 5679 5674 5669 5665 5662 5659 5657 5653 5650 5646 5643 5640 5636 5632 5628 5623 5619 5615 5611 5607 5603 5599 5596 5593 5593 5591 5588 5586 5583 5581